Regional Weather Roundup
Issued by NWS Burlington, VT

Home | Current Version | Previous Version | Text Only | Print | Product List | Glossary On
Versions: 1 2 3 4 5 6 7 8 9 10 11 12 13 14 15 16 17 18 19 20 21 22 23 24 25 26 27 28 29 30 31 32 33 34 35 36 37 38 39 40 41 42 43 44 45 46 47 48 49 50
553
ASUS41 KBTV 060110
RWRBTV
VERMONT REGIONAL WEATHER ROUNDUP
NATIONAL WEATHER SERVICE BURLINGTON VT
800 PM EST MON DEC 05 2016

NOTE: "FAIR" INDICATES FEW OR NO CLOUDS BELOW 12,000 FEET WITH NO
SIGNIFICANT WEATHER AND/OR OBSTRUCTIONS TO VISIBILITY.

* THESE REPORTS ARE NOT UNDER NWS QUALITY CONTROL AND/OR DO NOT
  REPORT WEATHER SUCH AS PRECIPITATION AND FOG.

VTZ001>019-060200-
_____VERMONT_____


CITY           SKY/WX    TMP DP  RH WIND       PRES   REMARKS
BURLINGTON     CLOUDY    36  28  73 NW12      29.98R WCI  28
MONTPELIER     CLOUDY    31  29  92 N3        29.96R
MORRISVILLE    FLURRIES  32  27  81 N7        29.95R WCI  26
ST. JOHNSBURY*   N/A     31  28  89 MISG      29.91R
LYNDONVILLE*   FLURRIES  30  29  96 W7        29.91S WCI  23
MIDDLEBURY*    CLOUDY   N/A N/A N/A CALM      29.97R HAZE
RUTLAND*       CLOUDY    36  29  75 W8G16     29.95R WCI  30
SPRINGFIELD    MOCLDY    22  20  92 CALM      29.95S FOG
HIGHGATE*      CLOUDY    28  27  93 NW3       29.99R
NEWPORT*       CLOUDY    29  26  89 W9        29.93R WCI  20
BENNINGTON     CLOUDY    37  30  75 VRB7      29.97R WCI  32
SUTTON*          N/A     28 N/A N/A MISG        N/A

_____LAKE CHAMPLAIN_____


CITY           SKY/WX    TMP DP  RH WIND       PRES   REMARKS
BURTON ISLAND*   N/A     32  32 100 N2          N/A
COLCHESTER RF*   N/A     37  32  81 NW17        N/A  WCI  28
DIAMOND ISL*     N/A     36  34  93 E3          N/A

$$

NYZ007-026>031-035-052-083-087-060200-
_____NORTHERN NEW YORK_____


CITY           SKY/WX    TMP DP  RH WIND       PRES   REMARKS
PLATTSBURGH    CLOUDY    32  31  96 CALM      29.98R
SARANAC LAKE   CLOUDY    30  27  88 W6        29.93R FOG     WCI  24
MASSENA        CLOUDY    30  28  92 SW3       30.01R
OGDENSBURG*    PTCLDY    34  34 100 W5        30.01R WCI  30
POTSDAM*       CLOUDY    34  34 100 SW8       30.00R WCI  27
WATERTOWN      CLOUDY    40  33  76 W13       30.02R
FT DRUM        CLOUDY    37  33  85 W3        29.99R
ALBANY         MOCLDY    38  31  76 W7        30.01R
GLENS FALLS    CLOUDY    37  31  78 NE6       29.99R

$$
NHZ002-005-011-060200-
_____NEW HAMPSHIRE_____


CITY           SKY/WX    TMP DP  RH WIND       PRES   REMARKS
LEBANON        CLOUDY    30  29  96 CALM      29.94R
KEENE          PTCLDY    27  26  96 CALM      29.95S FOG
MT WASHINGTON  SNOWSHWR  14  14 100 W49G58      N/A  VSB 0   WCI -11
PLYMOUTH         N/A     28  27  97 CALM      29.92S
WHITEFIELD     CLOUDY    30  26  85 CALM      29.90R

$$

_____REGIONAL QUEBEC LOCATIONS_____


CITY           SKY/WX    TMP DP  RH WIND       PRES   REMARKS
MONTREAL       CLOUDY    27  23  86 SW7       29.99R WCI  19
QUEBEC CITY    LGT SNOW  25  23  93 NE7       29.93R FOG     WCI  17
SHERBROOKE     FLURRIES  28  27  93 W15       29.89R WCI  17

_____REGIONAL ONTARIO LOCATIONS_____


CITY           SKY/WX    TMP DP  RH WIND       PRES   REMARKS
OTTAWA         MOCLDY    28  27  93 CALM      29.99R

______KEY______
VSB  - VISIBILITY IN MILES
WCI  - WIND CHILL INDEX
HX   - HEAT INDEX
$$
NNNN




USA.gov is the U.S. government's official web portal to all federal, state and local government web resources and services.